Content
SEND FEEDBACK

Daily
Averages
Monthly
Summary
United States of America

GLEN AUBREY, NEW YORK


Home > North America > United States > New York
Elevation: 1631 feet     Latitude: 42 13N     Longitude: 075 58W

WEATHER
 
SELECT A DAY
Number of Records: 249,187;   Date Range: 1/1/95 - 12/26/14
 
SHARE

PRINT THIS DATA

[ ← Previous Day ]
WEATHER ALMANAC - JANUARY 31, 2013
[ Next Day → ]
[ °C ]   °F
Weather ElementAverageHighLow
Temperature34.6 °F51.8 °F (2:34 am)19.9 °F (10:53 pm)
Dewpoint26.6 °F48.9 °F (1:53 am)6.1 °F (9:53 pm)
Humidity73.8 %96 % (1:53 am)50 % (6:53 pm)
Barometer29.28 in29.69 in (11:53 pm)29.01 in (3:53 am)
Wind Speed20.2 mph32.2 mph (11:53 am)
Wind Gust51.8 mph (4:53 am)
Weather ElementAverage
Visibility8 mi
Wind DirectionWSW (260.3 °)

Weather ElementTotal
Precipitation0.58 in
Heating Degree Days29.2 (Base 65)
Averaged from 39 records on January 31, 2013
WEATHER CONDITIONS BREAKOUT
WIND DIRECTION BREAKOUT
WEATHER BY HOUR - JANUARY 31, 2013
[ °C ]   °F
Local TimeTemperatureDewpointHumidityBarometerVisibilityWind DirectionWind SpeedGust SpeedPrecipitationEventsConditions
12:53 AM50.0 °F48.0 °F93 %29.12 in10.0 miSSE (150°)17.3 mph0.10 inRainLight Rain
1:06 AM50.0 °F48.2 °F94 %29.10 in9.0 miSSE (150°)18.4 mph25.3 mph0.01 inRainLight Rain
1:53 AM50.0 °F48.9 °F96 %29.06 in7.0 miSSE (160°)12.7 mph0.07 inRainRain
2:34 AM51.8 °F48.2 °F88 %29.02 in10.0 miSouth (170°)15.0 mph21.9 mph0.03 inOvercast
2:44 AM51.8 °F48.2 °F88 %29.05 in4.0 miWSW (250°)25.3 mph33.4 mph0.03 inRainLight Rain
2:48 AM50.0 °F46.4 °F87 %29.05 in2.5 miWSW (250°)19.6 mph33.4 mph0.03 inRainRain
2:53 AM50.0 °F46.0 °F86 %29.05 in2.0 miWSW (240°)21.9 mph32.2 mph0.14 inRainRain
2:56 AM50.0 °F46.4 °F87 %29.06 in5.0 miSW (230°)12.7 mph29.9 mph0.01 inRainRain
3:53 AM48.9 °F46.0 °F90 %29.01 in10.0 miWSW (250°)12.7 mph0.08 inRainLight Rain
4:14 AM48.2 °F44.6 °F87 %29.02 in8.0 miWest (280°)23.0 mph33.4 mph0.01 inRainRain
4:53 AM37.9 °F34.0 °F86 %29.08 in8.0 miWest (280°)19.6 mph51.8 mph0.04 inRainLight Rain
5:06 AM37.4 °F33.8 °F87 %29.08 in10.0 miWest (280°)18.4 mph31.1 mph0.00 inRainLight Rain
5:51 AM35.6 °F32.0 °F87 %29.09 in10.0 miWest (270°)17.3 mph27.6 mph0.00 inSnowLight Snow
5:53 AM36.0 °F32.0 °F86 %29.11 in10.0 miWest (280°)15.0 mph27.6 mph0.00 inSnowLight Snow
6:45 AM33.8 °F28.4 °F81 %29.14 in10.0 miWest (270°)24.2 mph32.2 mph0.00 inMostly Cloudy
6:53 AM33.8 °F28.4 °F81 %29.15 in10.0 miWest (280°)24.2 mph38.0 mphMostly Cloudy
7:20 AM33.8 °F28.4 °F81 %29.19 in5.0 miNW (310°)18.4 mph27.6 mphHaze
7:22 AM33.8 °F28.4 °F81 %29.19 in1.8 miWNW (300°)18.4 mph29.9 mph0.00 inSnowLight Snow
7:27 AM30.2 °F28.4 °F93 %29.19 in0.5 miWNW (290°)18.4 mph34.5 mph0.00 inSnowLight Snow
7:29 AM30.2 °F28.4 °F93 %29.20 in0.5 miWNW (300°)20.7 mph34.5 mphSnowLight Snow
7:41 AM30.2 °F28.4 °F93 %29.21 in1.8 miWest (280°)25.3 mph33.4 mph0.01 inSnowLight Snow
7:48 AM32.0 °F26.6 °F80 %29.22 in10.0 miWest (280°)24.2 mph35.7 mph0.01 inSnowLight Snow
7:53 AM32.0 °F26.1 °F79 %29.24 in9.0 miWest (270°)21.9 mph38.0 mph0.01 inScattered Clouds
8:53 AM32.0 °F18.0 °F56 %29.30 in10.0 miWest (270°)24.2 mph43.7 mphScattered Clouds
9:53 AM30.0 °F17.1 °F59 %29.33 in10.0 miWest (280°)20.7 mph44.9 mphMostly Cloudy
10:53 AM30.9 °F16.0 °F54 %29.34 in10.0 miWest (280°)29.9 mph48.3 mphScattered Clouds
11:53 AM30.0 °F15.1 °F54 %29.36 in9.0 miWest (270°)32.2 mph42.6 mph0.00 inOvercast
12:53 PM30.0 °F16.0 °F56 %29.40 in10.0 miWest (270°)23.0 mph41.4 mphMostly Cloudy
1:53 PM28.9 °F14.0 °F54 %29.42 in10.0 miWest (260°)26.5 mph35.7 mph0.00 inOvercast
2:53 PM28.0 °F12.0 °F51 %29.46 in10.0 miWest (270°)20.7 mph33.4 mph0.00 inOvercast
3:53 PM26.1 °F12.9 °F58 %29.50 in10.0 miWest (280°)20.7 mph32.2 mph0.00 inOvercast
4:53 PM25.0 °F9.0 °F51 %29.54 in10.0 miWest (280°)19.6 mph38.0 mphOvercast
5:53 PM24.1 °F10.9 °F57 %29.58 in9.0 miWest (270°)24.2 mph33.4 mph0.00 inMostly Cloudy
6:53 PM23.0 °F7.0 °F50 %29.62 in10.0 miWest (270°)19.6 mph28.8 mph0.00 inMostly Cloudy
7:53 PM23.0 °F8.1 °F53 %29.63 in10.0 miWest (270°)16.1 mph32.2 mph0.00 inOvercast
8:53 PM21.9 °F7.0 °F53 %29.66 in10.0 miWest (270°)20.7 mph32.2 mphOvercast
9:53 PM21.0 °F6.1 °F53 %29.67 in10.0 miWest (260°)17.3 mph36.8 mphMostly Cloudy
10:53 PM19.9 °F7.0 °F57 %29.67 in10.0 miWest (270°)13.8 mph25.3 mphMostly Cloudy
11:53 PM19.9 °F8.1 °F60 %29.69 in10.0 miWest (260°)13.8 mph24.2 mphOvercast
Hourly data recorded from KBGM, located miles away from Glen Aubrey, New York







STORIES FROM OUR PARTNERS